CW1020 Weather Reports


time (UTC)temp
F
wind
direction
speed
knots
gust
knots
rain 1hr
in
rain 24hr
in
rain mn
in
humidity
%
barometer
mb
20260508000003 73 304 9.6 13.0 0.00 0.00 0.00 46 1018.8
20260507235504 73 309 9.6 11.3 0.00 0.00 0.00 47 1018.8
20260507235003 74 311 9.6 13.9 0.00 0.00 0.00 45 1018.7
20260507234503 74 311 10.4 16.5 0.00 0.00 0.00 45 1018.6
20260507234004 74 298 9.6 13.0 0.00 0.00 0.00 45 1018.6
20260507233503 74 302 9.6 17.4 0.00 0.00 0.00 44 1018.6
20260507233005 74 304 9.6 13.9 0.00 0.00 0.00 44 1018.7
20260507232503 74 300 10.4 15.6 0.00 0.00 0.00 45 1018.7
20260507232005 74 303 10.4 15.6 0.00 0.00 0.00 44 1018.7
20260507231503 74 306 9.6 14.8 0.00 0.00 0.00 44 1018.6
20260507231003 75 313 8.7 13.9 0.00 0.00 0.00 43 1018.7
20260507230004 75 297 9.6 11.3 0.00 0.00 0.00 43 1018.7
20260507225503 75 316 8.7 12.2 0.00 0.00 0.00 43 1018.7
20260507225004 76 313 7.0 15.6 0.00 0.00 0.00 42 1018.7
20260507224004 76 289 6.1 9.6 0.00 0.00 0.00 42 1018.9
20260507223503 76 305 7.8 9.6 0.00 0.00 0.00 43 1019.0
20260507223003 76 302 7.8 11.3 0.00 0.00 0.00 43 1019.0
20260507222503 76 318 7.8 14.8 0.00 0.00 0.00 43 1019.1
20260507222004 76 306 7.0 11.3 0.00 0.00 0.00 43 1019.1
20260507221503 76 315 7.0 13.9 0.00 0.00 0.00 43 1019.3
20260507221005 75 307 7.8 8.7 0.00 0.00 0.00 44 1019.3
20260507220503 75 307 7.8 9.6 0.00 0.00 0.00 44 1019.3
20260507220003 75 312 7.8 13.0 0.00 0.00 0.00 44 1019.4
20260507215503 74 323 8.7 14.8 0.00 0.00 0.00 45 1019.2
20260507215003 74 315 8.7 14.8 0.00 0.00 0.00 44 1019.3
20260507214504 74 314 8.7 12.2 0.00 0.00 0.00 45 1019.4
20260507214003 74 320 8.7 13.9 0.00 0.00 0.00 46 1019.5
20260507213504 74 314 7.8 13.0 0.00 0.00 0.00 47 1019.5
20260507213003 73 316 7.8 13.9 0.00 0.00 0.00 47 1019.6
20260507212502 73 318 7.8 13.0 0.00 0.00 0.00 48 1019.5
20260507212002 72 324 7.0 13.9 0.00 0.00 0.00 49 1019.6
20260507211502 72 329 7.0 13.0 0.00 0.00 0.00 49 1019.6
20260507211002 72 319 7.8 10.4 0.00 0.00 0.00 50 1019.7
20260507210002 72 324 7.8 13.9 0.00 0.00 0.00 50 1019.8
20260507205502 71 315 8.7 13.0 0.00 0.00 0.00 51 1019.8
20260507205002 71 321 11.3 11.3 0.00 0.00 0.00 52 1019.9
20260507204502 71 321 11.3 15.6 0.00 0.00 0.00 52 1019.8
20260507204002 71 317 9.6 15.6 0.00 0.00 0.00 51 1020.0
20260507203502 71 315 9.6 14.8 0.00 0.00 0.00 51 1019.9
20260507203002 71 307 9.6 12.2 0.00 0.00 0.00 51 1019.9
20260507202502 71 323 10.4 16.5 0.00 0.00 0.00 51 1020.0
20260507202002 71 316 11.3 15.6 0.00 0.00 0.00 51 1020.1
20260507201002 71 318 10.4 18.2 0.00 0.00 0.00 51 1020.1
20260507200502 71 313 10.4 16.5 0.00 0.00 0.00 52 1020.2
20260507200002 71 317 9.6 16.5 0.00 0.00 0.00 51 1020.0
20260507195502 71 324 11.3 15.6 0.00 0.00 0.00 52 1020.0
20260507195002 70 320 11.3 15.6 0.00 0.00 0.00 52 1020.0
20260507194002 71 318 10.4 14.8 0.00 0.00 0.00 51 1020.0
20260507193502 70 322 9.6 15.6 0.00 0.00 0.00 51 1020.0
20260507193002 70 319 9.6 14.8 0.00 0.00 0.00 51 1020.0
20260507192503 70 322 9.6 15.6 0.00 0.00 0.00 51 1020.1
20260507192002 70 318 9.6 14.8 0.00 0.00 0.00 51 1020.0
20260507191502 70 317 9.6 13.0 0.00 0.00 0.00 52 1020.2
20260507191002 70 313 9.6 14.8 0.00 0.00 0.00 52 1020.2
20260507190502 70 319 8.7 15.6 0.00 0.00 0.00 51 1020.1
20260507190004 70 316 8.7 13.9 0.00 0.00 0.00 52 1020.3
20260507185502 70 316 9.6 13.9 0.00 0.00 0.00 52 1020.4
20260507185002 70 313 8.7 15.6 0.00 0.00 0.00 52 1020.4
20260507184504 70 317 7.8 10.4 0.00 0.00 0.00 52 1020.4
20260507184003 70 323 7.0 12.2 0.00 0.00 0.00 52 1020.4
20260507183502 70 322 7.0 11.3 0.00 0.00 0.00 52 1020.6
20260507182502 70 319 6.1 10.4 0.00 0.00 0.00 52 1020.6
20260507181503 70 329 5.2 13.0 0.00 0.00 0.00 52 1020.7
20260507181003 69 326 5.2 9.6 0.00 0.00 0.00 52 1020.8
20260507180503 69 315 6.1 8.7 0.00 0.00 0.00 52 1020.9
20260507180002 69 314 7.0 9.6 0.00 0.00 0.00 52 1021.0
20260507175502 68 316 7.8 11.3 0.00 0.00 0.00 53 1020.7
20260507175002 68 319 6.1 11.3 0.00 0.00 0.00 52 1020.7
20260507174503 68 321 6.1 11.3 0.00 0.00 0.00 53 1020.6
20260507174003 67 320 7.0 9.6 0.00 0.00 0.00 54 1020.6
20260507173502 67 318 7.0 13.9 0.00 0.00 0.00 54 1020.7
20260507173004 67 320 7.8 10.4 0.00 0.00 0.00 54 1020.7
20260507172502 66 316 7.8 11.3 0.00 0.00 0.00 55 1020.7
20260507172003 66 319 7.0 11.3 0.00 0.00 0.00 54 1020.8
20260507171502 66 321 7.0 12.2 0.00 0.00 0.00 56 1020.7
20260507171002 66 322 7.0 9.6 0.00 0.00 0.00 55 1020.8
20260507170502 65 323 6.1 10.4 0.00 0.00 0.00 55 1020.7
20260507170002 65 322 7.0 10.4 0.00 0.00 0.00 57 1020.8
20260507165503 65 320 6.1 9.6 0.00 0.00 0.00 56 1020.8
20260507165003 65 324 5.2 10.4 0.00 0.00 0.00 56 1020.8
20260507164502 65 318 5.2 8.7 0.00 0.00 0.00 57 1020.9
20260507163503 64 322 2.6 9.6 0.00 0.00 0.00 57 1021.0
20260507162503 63 325 2.6 7.0 0.00 0.00 0.00 60 1021.0
20260507162003 63 332 2.6 7.0 0.00 0.00 0.00 60 1021.0
20260507161503 62 326 2.6 3.5 0.00 0.00 0.00 62 1021.1
20260507161003 62 328 1.7 5.2 0.00 0.00 0.00 63 1021.1
20260507160502 61 340 0.9 2.6 0.00 0.00 0.00 65 1021.2
20260507160003 61 328 0.9 2.6 0.00 0.00 0.00 67 1021.3
20260507155503 60 316 1.7 3.5 0.00 0.00 0.00 68 1021.1
20260507155002 60 323 1.7 4.3 0.00 0.00 0.00 69 1021.2
20260507154502 59 330 0.9 3.5 0.00 0.00 0.00 71 1021.2
20260507154003 58 330 0.9 3.5 0.00 0.00 0.00 74 1021.2
20260507153502 57 0 0.0 0.0 0.00 0.00 0.00 75 1021.2
20260507153003 56 124 0.0 1.7 0.00 0.00 0.00 78 1021.3
20260507152503 55 127 0.9 1.7 0.00 0.00 0.00 80 1021.4
20260507152002 54 134 0.0 1.7 0.00 0.00 0.00 82 1021.3
20260507151502 53 0 0.0 0.0 0.00 0.00 0.00 85 1021.4
20260507151003 52 0 0.0 0.0 0.00 0.00 0.00 86 1021.3
20260507150503 51 140 0.0 0.9 0.00 0.00 0.00 87 1021.3
20260507145502 50 0 0.0 0.0 0.00 0.00 0.00 89 1021.4
20260507145003 49 0 0.0 0.0 0.00 0.00 0.00 89 1021.4
20260507144502 49 0 0.0 0.0 0.00 0.00 0.00 89 1021.4
20260507144003 49 142 0.0 0.9 0.00 0.00 0.00 90 1021.6
20260507143502 48 143 0.0 0.9 0.00 0.00 0.00 90 1021.5
20260507142503 47 0 0.0 0.0 0.00 0.00 0.00 90 1021.5
20260507142002 46 0 0.0 0.0 0.00 0.00 0.00 89 1021.5
20260507141502 45 144 0.9 0.9 0.00 0.00 0.00 89 1021.2
20260507141003 45 143 0.0 1.7 0.00 0.00 0.00 88 1021.2
20260507140005 44 0 0.0 0.0 0.00 0.00 0.00 87 1021.2
20260507135503 44 128 0.0 1.7 0.00 0.00 0.00 86 1021.1
20260507135003 44 124 0.0 0.9 0.00 0.00 0.00 86 1020.9
20260507134503 44 0 0.9 0.0 0.00 0.00 0.00 85 1020.9
20260507133503 44 131 0.0 1.7 0.00 0.00 0.00 85 1020.7
20260507133002 44 139 0.0 0.9 0.00 0.00 0.00 84 1020.7
20260507132003 45 139 0.0 1.7 0.00 0.00 0.00 84 1020.7
20260507130503 45 151 0.9 1.7 0.00 0.00 0.00 84 1020.4
20260507130002 45 139 0.9 1.7 0.00 0.00 0.00 84 1020.4
20260507125502 45 142 0.9 1.7 0.00 0.00 0.00 84 1020.7
20260507125003 45 150 0.0 0.9 0.00 0.00 0.00 84 1020.7
20260507124503 46 176 0.0 0.9 0.00 0.00 0.00 84 1020.7
20260507123502 46 0 0.0 0.0 0.00 0.00 0.00 83 1020.7
20260507123002 46 0 0.0 0.0 0.00 0.00 0.00 83 1020.7
20260507122503 46 0 0.0 0.0 0.00 0.00 0.00 84 1020.7
20260507121503 46 156 0.9 1.7 0.00 0.00 0.00 85 1020.8
20260507121002 47 165 0.9 2.6 0.00 0.00 0.00 85 1020.8
20260507120503 47 209 0.9 1.7 0.00 0.00 0.00 85 1020.8
20260507115003 47 201 0.0 0.9 0.00 0.00 0.00 85 1020.9
20260507114002 47 218 0.9 1.7 0.00 0.00 0.00 85 1020.9
20260507113502 47 219 0.9 1.7 0.00 0.00 0.00 85 1020.9
20260507113003 47 210 0.9 1.7 0.00 0.00 0.00 85 1021.0
20260507112503 47 201 0.0 1.7 0.00 0.00 0.00 84 1021.1
20260507112003 47 199 0.0 0.9 0.00 0.00 0.00 84 1021.1
20260507111503 47 0 0.0 0.0 0.00 0.00 0.00 84 1021.1
20260507110502 47 201 0.0 0.9 0.00 0.00 0.00 85 1021.1
20260507110003 47 201 0.0 0.9 0.00 0.00 0.00 84 1021.1
20260507105503 47 0 0.0 0.0 0.00 0.00 0.00 84 1021.1
20260507105003 47 199 0.0 0.9 0.00 0.00 0.00 85 1021.1
20260507104502 47 0 0.0 0.0 0.00 0.00 0.00 85 1021.1
20260507104003 47 195 0.0 1.7 0.00 0.00 0.00 85 1021.1
20260507103503 47 203 0.0 0.9 0.00 0.00 0.00 85 1021.1
20260507103003 47 205 0.0 1.7 0.00 0.00 0.00 85 1021.2
20260507102503 48 191 0.0 0.9 0.00 0.00 0.00 85 1021.1
20260507101502 48 189 0.0 1.7 0.00 0.00 0.00 85 1021.2
20260507101003 47 0 0.0 0.0 0.00 0.00 0.00 84 1021.2
20260507100503 47 0 0.0 0.0 0.00 0.00 0.00 85 1021.2
20260507100003 47 0 0.0 0.0 0.00 0.00 0.00 85 1021.3
20260507095503 48 191 0.0 0.9 0.00 0.00 0.00 84 1021.2
20260507095004 48 192 0.9 1.7 0.00 0.00 0.00 84 1021.2
20260507094502 48 184 0.0 1.7 0.00 0.00 0.00 84 1021.3
20260507094003 48 164 0.0 0.9 0.00 0.00 0.00 84 1021.3
20260507093502 48 162 0.0 0.9 0.00 0.00 0.00 84 1021.3
20260507093003 48 196 0.0 1.7 0.00 0.00 0.00 84 1021.3
20260507092503 48 223 0.0 0.9 0.00 0.00 0.00 84 1021.4
20260507092003 48 221 0.0 0.9 0.00 0.00 0.00 84 1021.3
20260507091002 48 0 0.0 0.0 0.00 0.00 0.00 84 1021.4
20260507090503 48 0 0.0 0.0 0.00 0.00 0.00 84 1021.4
20260507090003 48 225 0.0 0.9 0.00 0.00 0.00 84 1021.5
20260507085503 48 0 0.0 0.0 0.00 0.00 0.00 83 1021.4
20260507085003 48 0 0.0 0.0 0.00 0.00 0.00 83 1021.6
20260507084503 48 227 0.0 0.9 0.00 0.00 0.00 83 1021.6
20260507084003 48 226 0.0 0.9 0.00 0.00 0.00 83 1021.6
20260507082003 49 0 0.0 0.0 0.00 0.00 0.00 82 1021.7
20260507081003 49 0 0.0 0.0 0.00 0.00 0.00 82 1021.8
20260507080503 49 236 0.0 0.9 0.00 0.00 0.00 81 1021.8
20260507080004 49 0 0.0 0.0 0.00 0.00 0.00 81 1021.8
20260507075502 49 0 0.0 0.0 0.00 0.00 0.00 81 1021.5
20260507075004 50 0 0.0 0.0 0.00 0.00 0.00 81 1021.8
20260507074503 50 236 0.0 0.9 0.00 0.00 0.00 81 1021.7
20260507074004 50 0 0.0 0.0 0.00 0.00 0.00 81 1021.7
20260507073503 50 0 0.9 0.0 0.00 0.00 0.00 81 1021.7
20260507073003 50 236 0.9 0.9 0.00 0.00 0.00 81 1021.8
20260507072504 50 235 0.0 1.7 0.00 0.00 0.00 80 1021.8
20260507072003 50 237 0.0 0.9 0.00 0.00 0.00 80 1021.8
20260507071504 50 237 0.0 0.9 0.00 0.00 0.00 80 1021.8
20260507071003 50 237 0.0 0.9 0.00 0.00 0.00 79 1021.8
20260507070503 50 242 0.0 1.7 0.00 0.00 0.00 80 1021.8
20260507065503 51 222 0.9 1.7 0.00 0.00 0.00 79 1021.6
20260507065003 51 193 0.9 1.7 0.00 0.00 0.00 79 1021.6
20260507064503 51 164 0.0 1.7 0.00 0.00 0.00 79 1021.7
20260507064004 51 0 0.0 0.0 0.00 0.00 0.00 79 1021.6
20260507063503 51 0 0.0 0.0 0.00 0.00 0.00 79 1021.6
20260507063003 51 166 0.0 3.5 0.00 0.00 0.00 79 1021.6
20260507061503 51 0 0.0 0.0 0.00 0.00 0.00 78 1021.6
20260507060503 52 178 0.0 0.9 0.00 0.00 0.00 77 1021.7
20260507060003 52 0 0.0 0.0 0.00 0.00 0.00 77 1021.7
20260507055503 52 0 0.0 0.0 0.00 0.00 0.00 76 1021.7
20260507055003 52 178 0.0 0.9 0.00 0.00 0.00 76 1021.7
20260507054504 52 0 0.0 0.0 0.00 0.00 0.00 76 1021.6
20260507053003 53 0 0.0 0.0 0.00 0.00 0.00 75 1021.6
20260507052504 53 175 0.0 0.9 0.00 0.00 0.00 74 1021.6
20260507052003 53 166 0.0 2.6 0.00 0.00 0.00 74 1021.6
20260507051506 54 165 0.9 2.6 0.00 0.00 0.00 74 1021.7
20260507051003 54 162 1.7 2.6 0.00 0.00 0.00 74 1021.7
20260507050502 54 155 0.9 2.6 0.00 0.00 0.00 73 1021.6
20260507050003 54 176 0.0 3.5 0.00 0.00 0.00 73 1021.6
20260507045503 54 0 0.0 0.0 0.00 0.00 0.00 73 1021.5
20260507045004 54 0 0.0 0.0 0.00 0.00 0.00 72 1021.5
20260507044503 55 0 0.0 0.0 0.00 0.00 0.00 71 1021.5
20260507044003 55 287 0.0 0.9 0.00 0.00 0.00 71 1021.5
20260507043503 55 0 0.0 0.0 0.00 0.00 0.00 71 1021.5
20260507042503 56 0 0.0 0.0 0.00 0.00 0.00 70 1021.5
20260507042003 56 0 0.0 0.0 0.00 0.00 0.00 70 1021.4
20260507041503 56 0 0.0 0.0 0.00 0.00 0.00 69 1021.4
20260507041003 56 304 0.0 2.6 0.00 0.00 0.00 69 1021.3
20260507040504 57 0 0.0 0.0 0.00 0.00 0.00 68 1021.3
20260507035502 57 0 0.0 0.0 0.00 0.00 0.00 67 1021.2
20260507035003 57 0 0.0 0.0 0.00 0.00 0.00 67 1021.2
20260507034503 58 0 0.9 0.0 0.00 0.00 0.00 67 1021.0
20260507034003 58 334 0.9 3.5 0.00 0.00 0.00 66 1021.0
20260507033503 58 328 0.0 2.6 0.00 0.00 0.00 66 1021.1
20260507033003 58 0 0.0 0.0 0.00 0.00 0.00 66 1021.1
20260507032504 58 319 0.9 1.7 0.00 0.00 0.00 66 1020.9
20260507031503 58 318 0.9 3.5 0.00 0.00 0.00 65 1020.9
20260507031002 59 312 0.9 2.6 0.00 0.00 0.00 65 1020.9
20260507030003 59 314 1.7 1.7 0.00 0.00 0.00 64 1020.6
20260507025504 59 315 1.7 3.5 0.00 0.00 0.00 64 1020.5
20260507025003 59 315 1.7 3.5 0.00 0.00 0.00 64 1020.4
20260507024503 59 316 2.6 3.5 0.00 0.00 0.00 64 1020.5
20260507024004 60 301 2.6 4.3 0.00 0.00 0.00 63 1020.4
20260507023503 60 314 3.5 4.3 0.00 0.00 0.00 63 1020.4
20260507023004 60 317 3.5 3.5 0.00 0.00 0.00 62 1020.3
20260507022503 60 313 3.5 5.2 0.00 0.00 0.00 62 1020.3
20260507022003 61 315 2.6 5.2 0.00 0.00 0.00 61 1020.2
20260507020503 62 308 5.2 8.7 0.00 0.00 0.00 59 1020.1
20260507020004 62 310 6.1 7.8 0.00 0.00 0.00 58 1020.1
20260507015503 63 313 6.1 8.7 0.00 0.00 0.00 58 1020.0
20260507015004 63 315 6.1 9.6 0.00 0.00 0.00 57 1020.1
20260507014503 63 311 6.1 7.8 0.00 0.00 0.00 57 1020.1
20260507014003 64 316 6.1 10.4 0.00 0.00 0.00 56 1020.1
20260507013004 64 314 5.2 8.7 0.00 0.00 0.00 56 1020.2
20260507012503 64 321 6.1 10.4 0.00 0.00 0.00 56 1020.2
20260507012003 64 316 7.0 10.4 0.00 0.00 0.00 55 1020.2
20260507011503 64 312 7.8 8.7 0.00 0.00 0.00 55 1020.1
20260507010503 64 316 7.8 12.2 0.00 0.00 0.00 55 1020.2
20260507010004 64 312 7.8 12.2 0.00 0.00 0.00 55 1020.0
20260507005003 65 313 8.7 12.2 0.00 0.00 0.00 54 1019.9
20260507004505 65 317 7.8 13.0 0.00 0.00 0.00 55 1019.9
20260507004003 65 312 8.7 13.0 0.00 0.00 0.00 54 1019.9
20260507003503 65 302 8.7 9.6 0.00 0.00 0.00 54 1019.9
20260507003003 65 311 8.7 13.0 0.00 0.00 0.00 54 1019.9
20260507002504 65 314 8.7 12.2 0.00 0.00 0.00 55 1020.0
20260507001503 66 319 7.8 15.6 0.00 0.00 0.00 55 1019.9
20260507001004 66 324 7.8 11.3 0.00 0.00 0.00 55 1019.8